EHI
0 0 0 0 0 0 0 0 0 0 0 0 0 0 0 0 0 0 0 0 0 0 0 0 0 0 0 0 0 0 0 0 0 0 0 0 0 0
0 0 0 0 0 0 0 0 0 0 0 0 0 0 0 0 0 0 0 0 0 0 0 0 0 0 0 0 0 0 0 0 0 0 0 0 0 0
0 0 0 0 0 0 0 0 0 0 0 0 0 0 0 0 0 0 0 0 0 0 0 0 0 0 0 0 0 0 0 0 0 0 0 0 0 0
0 0 0 0 0 0 0 0 0 0 0 0 0 0 0 0 0 0 0 0 0 0 0 0 0 0 0 0 0 0 0 0 0 0 0 0 0 0
0 0 0 0 0 0 0 0 0 0 0 0 0 0 0 0 0 0 0 0 0 0 0 0 0 0 0 0 0 0 0 0 0 0 0 0 0 0
0 0 0 0 0 0 0 0 0 0 0 0 0 0 0 0 0 0 0 0 0 0 0 0 0 0 0 0 0 0 0 0 0 0 0 0 0 0
0 0 0 0 0 0 0 0 0 0 0 0 0 0 0 0 0 0 0 0 0 0 0 0 0 0 0 0 0 0 0 0 0 0 0 0 0 0
0 0 0 0 0 0 0 0 0 0 0 0 0 0 0 0 0 0 0 0 0 0 0 0 0 0 0 0 0 0 0 0 0 0 0 0 0 0
0 0 0 0 0 0 0 0 0 0 0 0 0 0 0 0 0 0 0 0 0 0 0 0 0 0 0 0 0 0 0 0 0 0 0 0 0 0
0 0 0 0 0 0 0 0 0 0 0 0 0 0 0 0 0 0 0 0 0 0 0 0 0 0 0 0 0 0 0 0 0 0 0 0 0 0
0 0 0 0 0 0 0 0 0 0 0 0 0 0 0 0 0 0 0 0 0 0 0 0 0 0 0 0 0 0 0 0 0 0 0 0 0 0
0 0 0 0 0 0 0 0 0 0 0 0 0 0 0 0 0 0 0 0 0 0 0 0 0 0 0 0 0 0 0 0 0 0 0 0 0 0
0 0 0 0 0 0 0 0 0 0 0 0 0 0 0 0 0 0 0 0 0 0 0 0 0 0 0 0 0 0 0 0 0 0 0 0 0 0
0 0 0 0 0 0 0 0 0 0 0 0 0 0 0 0 0 0 0 0 0 0 0 0 0 0 0 0 0 0 0 0 0 0 0 0 0 0
0 0 0 0 0 0 0 0 0 0 0 0 0 0 0 0 0 0 0 0 0 0 0 0 0 0 0 0 0 0 0 0 0 0 0 0 0 0
0 0 0 0 0 0 0 0 0 0 0 0 0 0 0 0 0 0 0 0 0 0 0 0 0 0 0 0 0 0 0 0 0 0 0 0 0 0
0 0 0 0 0 0 0 0 0 0 0 0 0 0 0 0 0 0 0 0 0 0 0 0 0 0 0 0 0 0 0 0 0 0 0 0 0 0
0 0 0 0 0 0 0 0 0 0 0 0 0 0 0 0 0 0 0 0 0 0 0 0 0 0 0 0 0 0 0 0 0 0 0 0 0 0
0 0 0 0 0 0 0 0 0 0 0 0 0 0 0 0 0 0 0 0 0 0 0 0 0 0 0 0 0 0 0 0 0 0 0 0 0 0
0 0 0 0 0 0 0 0 0 0 0 0 0 0 0 0 0 0 0 0 0 0 0 0 0 0 0 0 0 0 0 0 0 0 0 0 0 0
0 0 0 0 0 0 0 0 0 0 0 0 0 0 0 0 0 0 0 0 0 0 0 0 0 0 0 0 0 0 0 0 0 0 0 0 0 0
0 0 0 0 0 0 0 0 0 0 0 0 0 0 0 0 0 0 0 0 0 0 0 0 0 0 0 0 0 0 0 0 0 0 0 0 0 0
0 0 0 0 0 0 0 0 0 0 0 0 0 0 0 0 0 0 0 0 0 0 0 0 0 0 0 0 0 0 0 0 0 0 0 0 0 0
Wind_Speed
4 4 3 3 3 3 3 4 4 5 6 4 3 3 3 3 5 4 5 9 11 10 10 10 9 9 9 8 7 8 8 7 7 7 7 7 7 8
3 3 3 2 2 2 3 3 3 4 6 4 4 3 3 3 5 4 6 9 10 11 10 9 9 9 9 8 7 7 7 6 6 6 6 6 7 6
3 3 4 3 3 2 2 3 3 3 6 5 3 3 3 4 4 4 4 5 5 9 10 9 8 8 8 8 7 6 6 6 5 6 5 5 5 5
4 3 4 3 3 3 3 3 4 4 4 6 4 3 3 4 3 4 4 4 4 6 8 8 8 8 8 7 7 5 5 5 5 5 5 5 5 5
3 4 4 3 3 3 3 3 3 4 3 4 4 3 2 2 2 2 3 3 3 3 5 6 7 7 6 6 6 5 5 5 5 5 4 4 4 5
3 3 3 4 4 3 3 3 3 3 3 3 3 3 2 2 1 1 2 2 2 2 3 3 3 4 6 6 6 5 4 4 4 4 4 3 4 4
3 3 3 4 4 4 3 2 3 3 2 3 3 2 2 1 2 1 2 2 2 1 1 1 1 2 3 5 5 5 4 4 4 4 4 3 3 3
2 2 2 3 4 5 6 6 5 4 4 3 3 3 4 3 2 2 2 1 2 1 1 1 1 2 2 2 3 3 3 4 3 4 3 2 2 2
1 1 2 2 3 2 4 6 6 7 6 5 4 4 4 4 3 3 2 2 3 1 0 1 0 1 1 2 3 3 3 3 2 2 3 3 2 1
1 2 2 2 2 2 2 2 3 3 4 3 3 4 3 3 4 4 3 1 0 1 1 1 0 0 1 0 3 3 2 2 1 2 3 2 1 1
1 1 1 2 3 4 2 2 3 3 3 3 3 2 3 4 3 2 2 1 1 1 0 1 1 1 1 1 1 2 1 1 1 3 3 2 1 1
2 2 3 3 4 4 2 2 2 3 2 3 2 3 2 1 2 2 3 3 1 1 1 1 1 1 1 1 1 0 0 1 1 2 2 2 2 1
2 2 2 4 5 5 4 2 3 2 1 1 1 1 1 1 1 1 1 2 2 2 2 2 1 1 1 1 1 0 0 0 1 1 1 2 2 2
2 2 2 4 5 5 4 2 2 1 0 0 1 1 1 1 1 1 1 1 1 2 3 3 2 2 2 1 1 1 1 0 0 0 0 1 1 1
2 3 4 4 4 3 2 2 2 0 1 1 1 1 1 1 0 1 1 2 3 2 1 1 2 2 2 2 1 1 0 1 0 0 0 0 0 0
2 2 4 4 3 2 2 1 1 1 1 1 1 1 0 0 1 1 0 1 2 2 3 2 1 3 2 2 2 1 1 1 1 0 1 1 1 0
2 1 1 1 1 1 1 0 0 0 1 1 1 1 1 1 0 0 0 1 1 0 1 2 2 3 2 2 2 1 1 0 1 1 1 1 1 0
2 1 1 1 1 1 1 0 0 0 0 1 1 1 1 1 0 0 1 1 1 1 1 1 2 3 3 3 2 2 1 1 0 1 1 1 1 2
2 1 1 1 1 1 1 1 1 0 0 0 1 1 1 1 1 1 1 1 1 1 1 1 1 3 3 1 2 2 1 1 1 1 1 1 0 2
1 1 1 1 1 1 1 1 1 1 1 1 1 1 1 1 1 1 1 2 1 1 1 1 1 2 2 2 1 1 2 1 2 1 1 1 1 1
1 2 1 1 1 1 1 1 1 1 1 1 1 1 1 1 1 1 1 2 2 1 1 1 1 2 3 4 3 2 2 3 2 1 1 1 1 2
2 2 2 1 1 2 2 2 1 1 1 1 1 1 1 1 1 2 2 2 2 2 1 1 2 2 2 3 3 3 2 3 4 6 4 2 2 1
2 2 2 2 2 2 2 2 2 2 2 2 1 1 1 1 1 1 2 2 2 3 2 2 2 2 3 3 4 3 4 3 2 3 4 5 4 2
Wind_Direction
214 217 225 238 238 234 219 211 228 262 269 257 259 253 238 235 247 246 249 253 250 246 240 235 233 233 227 221 227 225 226 231 239 246 254 263 272 281
207 208 223 236 242 241 230 231 231 241 263 260 251 251 251 259 258 252 249 257 252 247 239 234 231 227 220 215 218 220 216 223 233 242 252 263 273 280
219 218 234 235 238 243 239 241 245 238 258 274 261 250 247 257 272 266 257 251 251 241 237 234 231 226 216 208 206 206 207 209 225 239 247 260 268 282
222 221 238 244 244 243 241 244 245 241 244 267 277 266 254 251 260 268 272 264 254 246 240 238 232 225 214 203 194 190 200 208 221 236 243 248 261 275
222 225 236 235 250 251 248 250 255 256 237 246 268 276 272 266 270 287 286 276 273 262 250 241 229 218 206 194 187 186 197 210 218 228 237 249 262 274
229 230 236 236 237 247 254 250 253 259 242 245 262 266 262 264 241 273 299 299 293 301 270 251 222 205 198 191 188 185 191 207 219 217 226 244 262 275
234 235 240 247 252 260 266 264 253 252 250 251 258 263 258 253 246 247 266 298 306 289 275 252 206 202 195 191 188 182 187 203 217 215 222 232 253 275
235 256 263 271 276 280 278 277 265 255 248 248 253 246 253 248 237 230 240 279 291 296 273 267 171 203 213 192 182 176 191 204 218 211 206 212 233 272
239 261 290 301 307 306 295 290 283 269 259 249 243 241 239 230 216 231 237 240 252 255 191 272 172 210 211 184 174 178 192 203 220 201 188 200 218 236
266 241 248 282 279 286 294 300 294 288 276 267 246 247 244 226 214 217 219 222 336 355 127 194 309 342 355 182 185 191 202 207 211 176 166 173 190 205
301 286 274 267 276 292 294 297 301 303 315 296 278 262 245 235 217 179 173 160 257 273 101 125 85 12 356 292 222 200 183 197 195 175 169 170 171 114
308 295 287 282 281 291 275 246 270 288 309 334 347 347 322 290 260 212 192 185 191 230 205 131 123 71 3 327 320 262 171 225 197 171 170 158 118 95
279 287 278 281 285 291 288 257 243 261 283 331 333 338 343 350 330 294 202 190 185 214 192 146 140 124 150 281 311 278 249 214 184 188 179 148 119 102
266 269 265 279 287 293 295 263 266 282 172 109 319 312 326 335 342 16 56 92 152 195 195 168 158 174 161 204 256 300 354 76 88 78 44 138 117 72
269 273 287 295 305 313 315 283 289 242 171 190 234 265 259 257 352 38 55 76 58 46 102 168 155 159 159 172 184 180 87 333 25 114 98 113 141 118
310 307 315 321 322 337 339 330 313 206 203 207 204 214 219 105 59 66 77 91 68 30 28 50 122 151 148 147 154 158 151 183 221 91 91 35 36 63
299 323 330 331 345 342 350 5 263 202 203 179 166 161 150 113 81 35 62 88 108 127 30 34 53 77 96 130 130 138 132 117 164 139 110 71 356 348
305 282 272 264 223 218 199 174 144 175 168 155 165 172 164 151 124 70 76 104 126 148 145 107 98 78 60 40 48 136 123 120 84 106 111 119 328 329
308 261 247 251 226 207 193 187 197 199 171 167 194 177 155 153 154 156 141 119 120 143 167 162 142 121 113 76 357 23 123 126 100 92 60 76 214 287
308 259 250 247 229 195 188 184 171 151 148 164 175 156 150 157 162 165 163 151 143 144 141 138 163 156 152 155 146 8 31 113 133 118 48 38 26 339
288 272 254 239 233 199 186 183 176 170 172 175 169 167 166 162 167 172 163 161 151 155 156 175 199 118 104 98 96 64 24 31 68 117 118 80 32 8
272 262 252 235 227 206 187 181 174 169 167 166 177 186 182 169 171 175 173 174 160 141 123 117 110 99 86 109 117 113 79 48 56 63 61 76 141 169
260 256 250 237 232 211 188 180 183 184 180 176 182 192 186 175 181 176 171 162 141 132 123 119 101 82 80 104 114 113 102 86 63 54 30 23 35 47